User: anonymous   Login
Location: La Pernelle
(49.6188°N, 1.2999°W)
Time: 07:54:18
(UTC+00:00)
Language:

Okean 1 Rocket - Orbit

View from above orbital plane
View from above orbital plane
View from above satellite
View from above satellite

Ground track
Ground track

The orbit data is extracted from the following two-line orbital elements,

1 19275U 88056B   21264.86772504  .00000100  00000-0  93803-5 0  9994
2 19275  82.5153 313.0198 0021494 114.2391 246.1073 14.82806673772998
Epoch (UTC): 21 September 2021 20:49:31
Eccentricity: 0.0021494
inclination: 82.5153°
perigee height: 605 km
apogee height: 635 km
right ascension of ascending node: 313.0198°
argument of perigee: 114.2391°
revolutions per day: 14.82806673
mean anomaly at epoch: 246.1073°
orbit number at epoch: 77299

The dashed part of the orbit path shows where the satellite is in the earth's shadow,  

DLR